Home > Weather > Bad Mergentheim > Past weeks

Flag for Germany Weather for the Past 2 Weeks in Bad Mergentheim, Baden-Württemberg, Germany

Now
39 °F

Mostly cloudy.


Feels Like: 33 °F
Forecast: 42 / 47 °F
Wind: 9 mph from Southeast

Location: Niederstetten

Current Time: Feb 13, 2016 at 2:52:39 PM

Latest Report: Feb 13, 2016 at 2:20 PM


Visibility: N/A

Pressure: 29.21 "Hg

Humidity: 87%

Dew point: 36 °F

Location of Bad MergentheimLocation

Historic Weather in Bad Mergentheim — Graph

°F

Bad Mergentheim Temperature Yesterday

Maximum temperature yesterday: 39 °F (at 12:20 PM)
Minimum temperature yesterday: 30 °F (at 7:20 AM)
Average temperature yesterday: 34 °F

High & Low Weather Summary for the Past Weeks

 TemperatureHumidityPressure
High54 °F (Feb 6, 2:20 PM)100% (Jan 31, 8:20 AM)30.36 "Hg (Jan 31, 8:20 AM)
Low30 °F (Feb 3, 7:20 PM)54% (Feb 6, 2:20 PM)29.12 "Hg (Feb 9, 5:20 PM)
Average39 °F85%29.84 "Hg
* Reported Jan 29 1:20 PM — Feb 13 1:20 PM, Bad Mergentheim, Weather by CustomWeather, © 2016

Note: Actual official high and low records may vary slightly from our data, if they occured in-between our weather recording intervals... More about our weather records

Advertising

Bad Mergentheim Weather History for the Previous 24 Hours

 ConditionsComfort  
Time TempWeatherWind HumidityBarometerVisibility
1:20 PM
Sat, Feb 13
39 °FMore clouds than sun.9 mph87%29.24 "HgN/A
12:20 PM37 °FPartly sunny.7 mph87%29.27 "HgN/A
11:46 AM36 °FBroken clouds.6 mph93%29.30 "HgN/A
11:20 AM36 °FDrizzle. Partly sunny.7 mph93%29.30 "Hg5 mi
10:20 AM34 °FLow clouds.5 mph93%29.33 "Hg5 mi
9:20 AM32 °FLow clouds.5 mph93%29.33 "Hg6 mi
8:20 AM32 °FPartly sunny.5 mph93%29.33 "Hg6 mi
5:20 AM30 °FLight snow. Passing clouds.7 mph93%29.33 "HgN/A
4:20 AM30 °FLight snow. Partly cloudy.6 mph86%29.33 "HgN/A
3:20 AM30 °FPassing clouds.6 mph86%29.33 "HgN/A
2:20 AM30 °FPassing clouds.6 mph86%29.33 "HgN/A
1:20 AM30 °FChilly.8 mph86%29.33 "HgN/A
12:20 AM32 °FPassing clouds.8 mph80%29.33 "HgN/A
11:20 PM
Fri, Feb 12
34 °FPassing clouds.9 mph75%29.36 "HgN/A
10:20 PM34 °FPassing clouds.8 mph81%29.36 "HgN/A
9:20 PM34 °FPassing clouds.8 mph81%29.36 "HgN/A
8:20 PM34 °FPassing clouds.10 mph81%29.36 "HgN/A
7:20 PM36 °FPartly cloudy.10 mph70%29.39 "HgN/A
6:20 PM36 °FPassing clouds.9 mph75%29.39 "HgN/A
5:20 PM36 °FPartly sunny.12 mph75%29.39 "HgN/A
4:20 PM37 °FScattered clouds.10 mph70%29.42 "HgN/A
3:20 PM37 °FPassing clouds.13 mph70%29.45 "HgN/A
2:20 PM39 °FScattered clouds.13 mph65%29.47 "HgN/A
Weather by CustomWeather, © 2016

See weather overviewHow to use our weather pages